Location: Unspecified
(0.0000°N, 0.0000°E)
Time: 09:35:48
(UTC+02:00)

Daily predictions for brighter satellites

Satellite Brightness Start Highest point End
(mag) Time Altitude Azimuth Time Altitude Azimuth Time Altitude Azimuth
CSL-04 Rocket 4.2 19:57:06 10° S 20:02:30 67° WSW 20:07:48 10° NNW
ARIANE 5 DEB (SYLDA) 3.1 19:59:53 10° WSW 20:02:41 61° S 20:12:12 10° E
Meteor 2-10 3.9 19:58:40 10° S 20:03:43 78° E 20:08:43 10° N
Cosmos 2251 Rocket 3.5 19:58:37 10° S 20:03:53 85° E 20:09:09 10° NNE
Cosmos 375 4.3 20:03:51 10° NNW 20:08:00 87° ENE 20:11:59 10° SSE
SMAP 3.5 20:04:24 10° S 20:09:02 70° WSW 20:13:38 10° NNW
USA 267 3.3 20:03:06 10° NE 20:09:38 80° SE 20:16:11 10° SSW
CORIOLIS 4.2 20:04:22 10° SSE 20:09:44 86° ENE 20:15:07 10° NNW
Cosmos 1934 Rocket 4.0 20:05:18 10° S 20:11:38 82° E 20:17:59 10° N
Delta 202 4.3 20:06:37 10° W 20:11:46 55° SSW 20:17:47 10° ESE
Cosmos 1328 Rocket 4.0 20:07:43 10° SSE 20:11:56 42° E 20:16:05 10° NNE
YAOGAN 1 2.6 20:08:06 10° SSE 20:12:22 61° ENE 20:16:38 10° N
Cosmos 2228 Rocket 3.7 20:10:47 10° SSE 20:14:53 35° E 20:19:00 10° NNE
Cosmos 1455 3.9 20:14:17 10° SE 20:16:36 15° E 20:18:55 10° ENE
Ariane Rocket 4.4 20:13:39 10° S 20:18:30 45° WSW 20:23:19 10° NNW
Tiangong 1 2.7 20:17:36 10° WNW 20:20:00 29° SW 20:22:22 10° SSE
Cosmos 1420 Rocket 4.1 20:14:55 10° N 20:20:00 51° ENE 20:25:03 10° SSE
Cosmos 1315 Rocket 3.0 20:16:08 10° N 20:20:15 80° W 20:24:24 10° S
Cosmos 1300 3.8 20:18:21 10° SSW 20:22:04 49° W 20:25:45 10° N
Cosmos 1805 Rocket 4.0 20:18:41 10° NNE 20:22:50 40° E 20:27:00 10° SSE
Cosmos 2360 Rocket 2.2 20:17:55 10° NNW 20:23:35 89° WSW 20:29:15 10° SSE
Iridium 2 4.3 20:22:26 10° SSE 20:25:53 34° E 20:29:19 10° NNE
Cosmos 2297 Rocket 3.4 20:20:47 10° SW 20:26:07 44° WNW 20:31:28 10° N
MONITOR-E 4.0 20:26:53 10° SSE 20:29:57 66° E 20:32:59 10° N
Cosmos 1666 Rocket 4.3 20:28:45 10° NNE 20:32:30 30° E 20:36:17 10° SSE
SL-24 R/B - RUBIN 2 3.3 20:29:07 10° NNW 20:33:21 71° ENE 20:37:38 10° SSE
Cosmos 1151 Rocket 3.4 20:29:40 10° SSE 20:33:47 42° E 20:37:54 10° NNE
GPS 2-04 Rocket1 2.8 20:30:09 10° WSW 20:34:09 75° NW 20:37:24 16° NE
GPS 2-14 Rocket1 3.9 20:31:47 10° W 20:35:17 36° SSW 20:38:50 10° SE
Cosmos 1633 Rocket 4.0 20:31:58 10° NNE 20:35:38 26° E 20:39:20 10° SE
ARIANE 5 R/B 1.4 20:34:02 10° W 20:36:45 64° N 20:40:06 19° ENE
Cosmos 1000 Rocket 4.4 20:31:49 10° N 20:37:56 80° E 20:44:05 10° S
METEOR-M 4.1 20:33:22 10° SSE 20:38:44 85° ENE 20:44:04 10° N
ERS-2 3.9 20:35:20 10° S 20:38:45 36° WSW 20:42:10 10° NW
Cosmos 1607 3.8 20:33:25 10° SSW 20:39:31 80° ESE 20:45:42 10° NNE
HETE-2 4.5 20:36:42 10° W 20:40:49 79° N 20:43:10 25° E
FALCON 9 R/B 3.5 20:39:40 10° N 20:42:46 20° NE 20:43:32 19° ENE
COSMOS 2428 2.8 20:38:35 10° N 20:44:03 50° ENE 20:49:34 10° SSE
MOS 1 4.3 20:38:41 10° SSE 20:44:21 88° WSW 20:50:01 10° NNW
Cosmos 2100 Rocket 4.5 20:40:43 10° SSE 20:46:14 34° E 20:51:26 11° NNE
Cosmos 2333 Rocket 3.3 20:42:29 10° NNE 20:46:24 22° ENE 20:46:24 22° ENE
ATLAS 3B R/B 3.7 20:40:47 10° S 20:47:10 30° ESE 20:50:15 22° ENE
Iridium 43 4.1 20:45:24 10° S 20:48:24 89° WSW 20:51:45 10° N
FUSE 4.3 20:44:57 10° SW 20:50:08 52° SSE 20:52:44 27° E
Cosmos 1605 Rocket 4.4 20:45:26 10° SSW 20:51:33 64° W 20:57:34 10° N
Ariane 44P Rocket 2.4 20:48:23 10° WSW 20:51:35 36° S 20:52:08 30° SSE
Cosmos 1153 Rocket 4.4 20:53:15 10° S 20:59:23 90° WSW 21:05:32 10° N
Meteor 2-17 Rocket 4.3 20:54:06 10° S 21:00:09 85° E 21:06:13 10° N
SPOT 3 Rocket 4.2 21:02:37 10° S 21:07:41 56° WSW 21:12:45 10° NNW
Cosmos 2173 Rocket 4.0 21:01:39 10° SSE 21:07:44 53° E 21:11:32 22° NNE
Cosmos 2219 Rocket 2.3 21:03:39 10° N 21:09:03 50° ENE 21:14:30 10° SSE
ALOS 2.6 21:05:49 10° S 21:10:27 67° WSW 21:15:05 10° NNW
Milstar 3 Cent rocket 2.5 21:03:13 10° NW 21:11:31 63° NNE 21:13:10 44° E
Cosmos 2123 Rocket 3.9 21:06:30 10° N 21:12:47 86° E 21:19:09 10° S
Tiangong 2 4.1 21:14:28 10° NW 21:15:00 10° NW 21:15:31 10° NW
ARIANE 5 DEB (SYLDA) 3.7 21:13:18 10° WNW 21:16:43 43° N 21:16:57 43° NNE
ARIANE 5 R/B 3.5 21:13:30 10° W 21:18:53 47° N 21:19:05 46° N
ARIANE 2 DEBRIS 2.9 21:17:18 10° W 21:20:42 66° NW 21:20:42 66° NW
Aureole 2 Rocket 3.3 21:17:30 10° NNW 21:21:30 59° WSW 21:25:24 10° S
SWIFT 3.3 21:20:12 10° W 21:23:59 38° NNW 21:23:59 38° NNW
ARIANE 5 R/B 2.6 21:23:45 10° W 21:26:24 80° N 21:26:30 79° NNE
TRAILBLAZER 4.5 21:22:11 10° SSW 21:26:30 82° WSW 21:26:30 82° WSW
USA 238 DEB 3.7 21:20:54 10° S 21:27:40 56° ESE 21:28:23 54° E
USA 238 3.7 21:21:00 10° S 21:27:45 55° ESE 21:28:25 53° E
Ariane 42L R/B 3.9 21:25:12 10° WNW 21:29:09 56° NNE 21:31:05 46° ENE
Ariane H10+ 3.7 21:28:32 10° WSW 21:30:20 29° SW 21:30:20 29° SW
Cosmos 407 Rocket 4.2 21:27:08 10° S 21:30:49 41° SSE 21:30:49 41° SSE
Exosat Rocket 4.5 21:28:19 10° SSW 21:34:28 76° WNW 21:43:17 10° N
ATLAS 3B CENTAUR R/B 3.5 21:29:34 10° WNW 21:35:47 81° SSW 21:49:58 17° ESE
ATLAS CENTAUR R/B 3.4 21:47:19 10° SSW 21:49:05 23° SW 21:49:05 23° SW
Cosmos 2061 Rocket 4.3 21:47:18 10° SSW 21:53:26 61° W 21:55:23 42° NNW
ARIANE 5 R/B 4.3 15:44:25 10° W 21:57:49 72° S 22:02:13 48° ESE
ARIANE 5 R/B 3.8 21:41:25 10° W 21:57:36 58° SSW 21:57:36 58° SSW
Ariane H10+ 3.4 21:59:16 10° WSW 22:02:35 56° SSW 22:02:35 56° SSW
Cosmos 2263 Rocket 4.4 22:24:53 10° SSW 22:26:27 19° SSW 22:26:27 19° SSW
Cosmos 2333 Rocket 4.3 22:26:07 10° NW 22:36:28 - SSW 22:28:50 22° WNW
ATLAS 3B R/B 4.1 22:31:02 10° SW 22:37:36 34° WNW 22:37:36 34° WNW
